Date,TemperatureHighF,TemperatureAvgF,TemperatureLowF,DewpointHighF,DewpointAvgF,DewpointLowF,HumidityHigh,HumidityAvg,HumidityLow,PressureMaxIn,PressureMinIn,WindSpeedMaxMPH,WindSpeedAvgMPH,GustSpeedMaxMPH,PrecipitationSumIn
2013-2-1,30.9,26.3,20.3,20.5,10.4,4.4,73,51,36,30.12,29.60,27,6,27,0.00
2013-2-2,28.6,22.5,15.1,14.8,8.1,2.7,71,54,41,30.29,30.08,19,4,19,0.00
2013-2-3,26.2,22.7,17.4,21.9,19.1,14.6,93,86,69,30.09,29.76,12,0,12,0.00
2013-2-4,27.1,22.2,18.8,19.5,11.9,7.1,92,65,44,29.98,29.76,29,5,29,0.00
2013-2-5,26.4,23.0,19.7,21.2,15.2,9.1,92,72,61,30.06,29.96,11,1,11,0.00
2013-2-6,36.2,28.0,22.1,25.2,18.1,4.2,94,69,40,30.33,29.95,20,3,20,0.03
2013-2-7,29.8,23.1,13.6,11.2,6.0,3.0,77,49,33,30.55,30.32,11,1,11,0.00
2013-2-8,30.7,23.7,16.9,29.2,19.9,11.4,94,86,62,30.51,29.63,26,3,26,0.00
2013-2-9,23.1,18.5,13.5,20.3,14.5,5.0,94,84,67,30.25,29.61,27,6,27,0.00
2013-2-10,37.9,22.3,9.2,10.6,5.7,0.5,69,51,24,30.43,30.25,14,2,14,0.17
2013-2-11,44.0,31.9,13.9,42.7,25.8,-6.4,96,79,39,30.38,29.63,8,0,8,0.19
2013-2-12,41.2,36.6,13.9,39.3,27.9,-6.4,94,71,39,30.15,29.63,0,0,0,0.00
2013-2-13,40.5,30.6,13.9,26.0,20.2,-6.4,83,66,39,30.15,29.71,9,0,9,0.00
2013-2-14,42.9,33.3,26.5,25.0,22.5,20.0,83,66,43,30.01,29.73,11,1,11,0.00
2013-2-15,50.5,38.0,28.2,35.2,30.9,23.0,94,77,53,30.02,29.92,20,3,20,0.00
2013-2-16,36.2,32.9,28.4,32.0,27.6,18.3,100,81,60,29.97,29.73,11,1,11,0.04
2013-2-17,28.1,20.4,14.6,20.9,9.8,1.2,91,65,42,29.74,29.45,34,8,34,0.00
2013-2-18,28.4,20.4,12.2,3.7,1.5,-2.2,59,44,28,30.20,29.74,30,7,30,0.00
2013-2-19,46.9,34.2,19.4,40.5,24.3,2.6,95,68,45,30.21,29.61,20,2,20,0.26
2013-2-20,39.5,30.1,24.1,37.9,19.2,10.7,95,64,43,29.81,29.57,28,6,28,0.01
2013-2-21,32.1,26.1,22.2,16.6,14.2,11.0,72,61,47,30.24,29.80,25,5,25,0.00
2013-2-22,38.9,29.7,19.6,24.1,20.1,15.4,86,68,46,30.42,30.24,14,1,14,0.00
2013-2-23,36.6,32.4,27.2,31.1,28.1,22.4,95,84,76,30.35,29.92,12,1,12,0.01
2013-2-24,33.5,32.3,30.7,32.4,31.1,29.7,96,95,95,29.92,29.72,4,0,4,0.39
2013-2-25,37.4,32.5,25.7,33.6,30.4,24.5,96,92,80,30.27,29.92,1,0,1,0.43
2013-2-26,43.3,35.1,13.9,33.7,29.3,-6.4,95,80,39,30.35,30.15,1,0,1,0.21
2013-2-27,40.8,37.4,33.4,39.5,35.6,30.3,95,93,84,30.17,29.75,1,0,1,0.85
2013-2-28,43.5,36.1,32.1,37.9,34.0,30.8,96,92,79,29.67,29.56,3,0,3,0.00